WetterOnline ( https://www.wetteronline.ch )

Wetter aktuell Straubing

Aktuelles Wetter: Straubing (360m)

6-stündlich | Neueste Meldungen
Ortszeit Temperatur Wetter
Sa, 18.01. 7:00 0.6° C leichter Regen
Sa, 18.01. 1:00 0.1° C leichter Regen
Fr, 17.01. 19:00 1.8° C wolkenlos
Fr, 17.01. 13:00 2.9° C fast wolkenlos
Fr, 17.01. 7:00 -3.4° C Nebel
Fr, 17.01. 1:00 -1.6° C wolkenlos
Do, 16.01. 19:00 0.3° C wolkenlos
Do, 16.01. 13:00 2.3° C bedeckt
Ortszeit Temperatur Wetter
Sa, 18.01. 9:00 0.7° C bedeckt
Sa, 18.01. 8:50 0.7° C bedeckt
Sa, 18.01. 8:40 0.6° C bedeckt
Sa, 18.01. 8:30 0.5° C bedeckt
Sa, 18.01. 8:20 0.5° C bedeckt
Sa, 18.01. 8:10 0.4° C Nebel
Sa, 18.01. 8:00 0.4° C bedeckt
Sa, 18.01. 7:30 0.6° C bewölkt
Sa, 18.01. 7:00 0.6° C leichter Regen
Sa, 18.01. 6:30 0.5° C leichter Regen
Sa, 18.01. 6:00 0.6° C leichter Regen
Ortszeit Relative Feuchte Sichtweite
Sa, 18.01. 7:00 100% 1.0 km
Sa, 18.01. 1:00 100% 2.5 km
Fr, 17.01. 19:00 92% 12 km
Fr, 17.01. 13:00 89% 10 km
Fr, 17.01. 7:00 100% <100 m
Fr, 17.01. 1:00 100% 2.8 km
Do, 16.01. 19:00 98% 4.3 km
Do, 16.01. 13:00 89% 8 km
Ortszeit Relative Feuchte Sichtweite
Sa, 18.01. 9:00 100% 1.5 km
Sa, 18.01. 8:50 100% -
Sa, 18.01. 8:40 100% -
Sa, 18.01. 8:30 100% 1.0 km
Sa, 18.01. 8:20 100% -
Sa, 18.01. 8:10 100% -
Sa, 18.01. 8:00 100% 1.1 km
Sa, 18.01. 7:30 100% 1.3 km
Sa, 18.01. 7:00 100% 1.0 km
Sa, 18.01. 6:30 100% 1.3 km
Sa, 18.01. 6:00 100% 1.5 km
Ortszeit Niederschlagsmenge Niederschlagsart
Sa, 18.01. 7:00 4 l/m2 in 12 Std. Regen
Sa, 18.01. 1:00 0.2 l/m2 in 6 Std. Regen
Fr, 17.01. 19:00 0.0 l/m2 in 12 Std. -
Fr, 17.01. 13:00 0.0 l/m2 in 6 Std. -
Fr, 17.01. 7:00 0.0 l/m2 in 12 Std. -
Fr, 17.01. 1:00 0.0 l/m2 in 6 Std. -
Do, 16.01. 19:00 0.1 l/m2 in 12 Std. -
Do, 16.01. 13:00 0.1 l/m2 in 6 Std. Regen
Ortszeit Niederschlagsmenge Niederschlagsart
Sa, 18.01. 9:00 0.0 l/m2 in 1 Std. -
Sa, 18.01. 8:50 keine Meldung -
Sa, 18.01. 8:40 keine Meldung -
Sa, 18.01. 8:30 0.0 l/m2 in 1 Std. -
Sa, 18.01. 8:20 keine Meldung -
Sa, 18.01. 8:10 keine Meldung -
Sa, 18.01. 8:00 0.2 l/m2 in 1 Std. Regen
Sa, 18.01. 7:30 0.2 l/m2 in 1 Std. Schneeregen
Sa, 18.01. 7:00 1.7 l/m2 in 1 Std. Regen
Sa, 18.01. 6:30 0.7 l/m2 in 1 Std. -
Sa, 18.01. 6:00 0.5 l/m2 in 1 Std. Regen
Ortszeit Stärke Spitze Richtung
km/h Bft. km/h Grad Sektor
Sa, 18.01. 7:00 4 1 11 60° NO
Sa, 18.01. 1:00 7 2 14 100° O
Fr, 17.01. 19:00 4 1 14 110° O
Fr, 17.01. 13:00 11 2 18 100° O
Fr, 17.01. 7:00 4 1 11 200° S
Fr, 17.01. 1:00 4 1 11 230° SW
Do, 16.01. 19:00 4 1 11 220° SW
Do, 16.01. 13:00 9 2 15 90° O
Ortszeit Stärke Spitze Richtung
km/h Bft. km/h Grad Sektor
Sa, 18.01. 9:00 0 0 7 - -
Sa, 18.01. 8:50 0 0 - 140° SO
Sa, 18.01. 8:40 2 1 - 50° NO
Sa, 18.01. 8:30 4 1 4 20° N
Sa, 18.01. 8:20 4 1 - 20° N
Sa, 18.01. 8:10 2 1 - 30° NO
Sa, 18.01. 8:00 4 1 7 20° N
Sa, 18.01. 7:30 0 0 7 - -
Sa, 18.01. 7:00 4 1 4 60° NO
Sa, 18.01. 6:30 2 1 4 50° NO
Sa, 18.01. 6:00 0 0 11 - -
Ortszeit Untergrenze Bedeckung Gattung
total tief tief mittel hoch
Sa, 18.01. 7:00 60 m 8/8 8/8 - - -
Sa, 18.01. 1:00 30 m 8/8 8/8 - - -
Fr, 17.01. 19:00 - 0/8 0/8 - - -
Fr, 17.01. 13:00 9000 m 2/8 0/8 - - -
Fr, 17.01. 7:00 <30 m 8/8 0/8 - - -
Fr, 17.01. 1:00 - 0/8 0/8 - - -
Do, 16.01. 19:00 - 0/8 0/8 - - -
Do, 16.01. 13:00 1500 m 8/8 8/8 - - -
Ortszeit Bedeckungsgrad in Achtel und Wolkenuntergrenze
Sa, 18.01. 9:00 8(60m)
Sa, 18.01. 8:50 8(60m)
Sa, 18.01. 8:40 8(90m)
Sa, 18.01. 8:30 8(90m)
Sa, 18.01. 8:20 8(90m)
Sa, 18.01. 8:10 8(90m)
Sa, 18.01. 8:00 7(60m) 7(1410m) 8(2400m)
Sa, 18.01. 7:30 3(30m) 5(1020m) 7(1500m)
Sa, 18.01. 7:00 4(60m) 7(180m) 8(750m)
Sa, 18.01. 6:30 8(120m) 7(510m) 8(780m)
Sa, 18.01. 6:00 8(120m)
Ortszeit Luftdruck NN (hPa) Tendenz (hPa in 3 Std.)
Sa, 18.01. 7:00 1027 + 1,6
Sa, 18.01. 1:00 1024 + 0,8
Fr, 17.01. 19:00 1022 + 0,5
Fr, 17.01. 13:00 1023 - 0,8
Fr, 17.01. 7:00 1025 - 0,5
Fr, 17.01. 1:00 1027 - 2,1
Do, 16.01. 19:00 1031 - 0,1
Do, 16.01. 13:00 1032 - 0,8
Ortszeit Luftdruck NN (hPa) Tendenz (hPa in 3 Std.)
Sa, 18.01. 9:00 1028 + 1,9
Sa, 18.01. 8:50 1028 keine Meldung
Sa, 18.01. 8:40 1028 keine Meldung
Sa, 18.01. 8:30 1028 + 1,7
Sa, 18.01. 8:20 1028 keine Meldung
Sa, 18.01. 8:10 1028 keine Meldung
Sa, 18.01. 8:00 1028 + 1,9
Sa, 18.01. 7:30 1027 + 1,7
Sa, 18.01. 7:00 1027 + 1,6
Sa, 18.01. 6:30 1027 + 1,3
Sa, 18.01. 6:00 1026 + 1,1
Ortszeit Schneehöhe (cm)
Sa, 18.01. 7:00 0
Sa, 18.01. 1:00 0
Fr, 17.01. 19:00 0
Fr, 17.01. 13:00 0
Fr, 17.01. 7:00 0
Fr, 17.01. 1:00 0
Do, 16.01. 19:00 0
Do, 16.01. 13:00 0
Ortszeit Schneehöhe (cm)
Sa, 18.01. 9:00 0
Sa, 18.01. 8:50 0
Sa, 18.01. 8:40 0
Sa, 18.01. 8:30 0
Sa, 18.01. 8:20 0
Sa, 18.01. 8:10 0
Sa, 18.01. 8:00 0
Sa, 18.01. 7:30 0
Sa, 18.01. 7:00 0
Sa, 18.01. 6:30 0
Sa, 18.01. 6:00 0
Link zu dieser Seite / Seite empfehlen

Das Wetter in ...